Change the Weather History Date:

Saturday, January 18, 2014

  Actual Average Record
Temperature  
Mean Temperature 30 °F -  
Max Temperature 48 °F 39 °F 60 °F (2000)
Min Temperature 12 °F 19 °F -11 °F (2007)
Degree Days  
Heating Degree Days 35    
Moisture  
Dew Point 18 °F    
Average Humidity 65    
Maximum Humidity 88    
Minimum Humidity 24    
Precipitation  
Precipitation 0.00 in - - ()
Sea Level Pressure  
Sea Level Pressure 30.39 in    
Wind  
Wind Speed 5 mph (North)    
Max Wind Speed 14 mph    
Max Gust Speed -    
Visibility 10 miles    
Events      
Averages and records for this station are not official NWS values.
T = Trace of Precipitation, MM = Missing Value Source: NWS Daily Summary

Daily Weather History Graph

Daily Weather History Graph

Search for Another Location

Airport or City:

Trip Planner

Search our weather history database for the weather conditions in past years. The results will help you decide how hot, cold, wet, or windy it might be!

Date:

Astronomy

Jan. 18, 2014 Rise Set
Actual Time 7:46 AM MST 5:38 PM MST
Civil Twilight 7:17 AM MST 6:07 PM MST
Nautical Twilight 6:45 AM MST 6:39 PM MST
Astronomical Twilight 6:13 AM MST 7:11 PM MST
Moon 8:21 PM MST (1/18) 8:50 AM MST (1/18)
Length of Visible Light 10h 49m
Length of Day
9h 52m
Waning Gibbous, 94% of the Moon is Illuminated
Jan 18
Waning Gibbous
Jan 23
Last Quarter
Jan 30
New
Feb 6
First Quarter
Feb 14
Full

Hourly Weather History & Observations

Time (MST) Temp. Windchill Dew Point Humidity Pressure Visibility Wind Dir Wind Speed Gust Speed Precip Events Conditions
12:52 AM 21.0 °F 13.4 °F 17.1 °F 85% 30.33 in 10.0 mi South 5.8 mph - N/A   Clear
1:52 AM 18.0 °F - 12.9 °F 81% 30.35 in 10.0 mi Calm Calm - N/A   Clear
2:52 AM 18.0 °F 12.7 °F 14.0 °F 84% 30.36 in 10.0 mi West 3.5 mph - N/A   Clear
3:52 AM 19.0 °F 12.3 °F 14.0 °F 81% 30.34 in 10.0 mi South 4.6 mph - N/A   Clear
4:52 AM 17.1 °F 8.7 °F 12.0 °F 81% 30.36 in 10.0 mi South 5.8 mph - N/A   Clear
5:52 AM 14.0 °F 8.2 °F 9.0 °F 80% 30.42 in 10.0 mi NNE 3.5 mph - N/A   Clear
6:52 AM 12.9 °F 6.9 °F 10.0 °F 88% 30.44 in 10.0 mi NNW 3.5 mph - N/A   Clear
7:52 AM 16.0 °F - 12.0 °F 84% 30.45 in 10.0 mi Calm Calm - N/A   Clear
8:52 AM 25.0 °F - 19.0 °F 78% 30.45 in 10.0 mi Calm Calm - N/A   Clear
9:52 AM 27.0 °F - 19.9 °F 75% 30.46 in 10.0 mi Calm Calm - N/A   Clear
10:52 AM 35.1 °F 30.1 °F 21.0 °F 57% 30.44 in 10.0 mi NNE 5.8 mph - N/A   Clear
11:52 AM 39.0 °F 33.4 °F 23.0 °F 53% 30.43 in 10.0 mi NNE 8.1 mph - N/A   Clear
12:52 PM 43.0 °F 36.0 °F 23.0 °F 45% 30.38 in 10.0 mi North 13.8 mph - N/A   Clear
1:52 PM 46.9 °F - 21.9 °F 37% 30.34 in 10.0 mi North 13.8 mph - N/A   Clear
2:52 PM 48.0 °F - 21.9 °F 36% 30.33 in 10.0 mi North 13.8 mph - N/A   Clear
3:52 PM 46.9 °F - 21.9 °F 37% 30.33 in 10.0 mi North 11.5 mph - N/A   Clear
4:52 PM 45.0 °F 39.7 °F 26.1 °F 48% 30.34 in 10.0 mi North 10.4 mph - N/A   Clear
5:52 PM 37.0 °F 28.9 °F 25.0 °F 62% 30.39 in 10.0 mi NNW 12.7 mph - N/A   Clear
6:52 PM 34.0 °F 27.2 °F 23.0 °F 64% 30.42 in 10.0 mi North 8.1 mph - N/A   Clear
7:52 PM 28.9 °F 22.8 °F 21.9 °F 75% 30.43 in 10.0 mi NNE 5.8 mph - N/A   Clear
8:52 PM 28.0 °F 24.2 °F 21.9 °F 78% 30.40 in 10.0 mi East 3.5 mph - N/A   Clear
9:52 PM 25.0 °F 20.7 °F 19.0 °F 78% 30.41 in 10.0 mi WNW 3.5 mph - N/A   Clear
10:52 PM 26.1 °F - 18.0 °F 71% 30.38 in 10.0 mi Calm Calm - N/A   Clear
11:52 PM 21.9 °F 17.2 °F 17.1 °F 82% 30.38 in 10.0 mi SSW 3.5 mph - N/A   Clear